Regional Weather Roundup
Issued by NWS Sioux Falls, SD

Home | Current Version | Previous Version | Text Only | Print | Product List | Glossary On
Versions: 1 2 3 4 5 6 7 8 9 10 11 12 13 14 15 16 17 18 19 20 21 22 23 24 25 26 27 28 29 30 31 32 33 34 35 36 37 38 39 40 41 42 43 44 45 46 47 48 49 50
000
ASUS43 KFSD 221710
RWRFSD

WEATHER ROUNDUP FOR SE SOUTH DAKOTA/SW MINNESOTA/NW IOWA
NATIONAL WEATHER SERVICE SIOUX FALLS SD
1100 AM CST WED FEB 22 2017

NOTE: "FAIR" INDICATES FEW OR NO CLOUDS BELOW 12,000 FEET WITH NO
SIGNIFICANT WEATHER AND OR OBSTRUCTIONS TO VISIBILITY.


SDZ038>040-050-052>070-221800-
SOUTHEAST SOUTH DAKOTA

CITY           SKY/WX    TMP DP  RH WIND       PRES   REMARKS
BROOKINGS      MOSUNNY   56  42  59 W15       29.59S
CHAMBERLAIN    SUNNY     55  40  57 NW20G26   29.69R
HURON          SUNNY     48  41  76 NW14      29.63S
MADISON        FAIR      55  45  67 W17G23    29.61S
MITCHELL       SUNNY     59  38  45 W18G26    29.64S
SIOUX FALLS    MOSUNNY   55  42  61 W9        29.63S
WINNER         FAIR      57  38  48 NW24G31   29.72R
YANKTON        SUNNY     57  37  47 W13G18    29.65S
$$

MNZ071-072-080-081-089-090-097-098-221800-
SOUTHWEST MINNESOTA

CITY           SKY/WX    TMP DP  RH WIND       PRES   REMARKS
FAIRMONT       PTSUNNY   48  41  76 N6        29.59F
JACKSON        MOSUNNY   52  37  58 W9        29.59F
LUVERNE        CLOUDY    46  37  71 W12       29.64R
MARSHALL       PTSUNNY   45  42  89 NW5       29.61S
MONTEVIDEO     CLOUDY    45  45 100 CALM      29.61S
PIPESTONE      MOSUNNY   52  37  58 CALM      29.61R
REDWOOD FALLS  CLOUDY    46  41  82 W7        29.58F
TRACY          MOSUNNY   49  45  84 NW7       29.60F
WINDOM         CLOUDY    52  39  62 W5        29.58F
WORTHINGTON    MOSUNNY   52  41  66 SW8       29.60F
$$

IAZ001>003-012>014-020>022-031-032-NEZ013-014-SDZ071-221800-
NORTHWEST IOWA

CITY           SKY/WX    TMP DP  RH WIND       PRES   REMARKS
CHEROKEE       SUNNY     61  40  46 NW12      29.61F
DENISON        SUNNY     57  39  51 W7        29.61F
ESTHERVILLE    MOSUNNY   54  43  66 W8        29.57F
LE MARS        SUNNY     59  43  55 NW9       29.64R
ORANGE CITY    SUNNY     57  45  62 W9        29.61S
SHELDON        SUNNY     57  45  62 W7        29.59F
SIOUX CITY     SUNNY     61  39  44 NW12      29.64F
SPENCER        SUNNY     60  41  49 W9        29.59F
STORM LAKE     SUNNY     57  39  51 NW13      29.61S
$$

ABBREVIATIONS USED IN REMARKS
   TC - TEMPERATURE IN CELSIUS
  WCI - WIND CHILL INDEX
   HX - HEAT INDEX
  VSB - VISIBILITY





USA.gov is the U.S. government's official web portal to all federal, state and local government web resources and services.